7 * 24
多渠道服务支持
TIANMU-1 19 是一颗由中国研制并发射的遥感卫星,主要用于对地观测和环境监测。该卫星具备高分辨率成像能力,能够获取地球表面的详细图像,广泛应用于资源调查、城市规划、灾害监测等领域。其先进传感器和数据处理技术,提升了我国在遥感领域的技术水平和应用能力。TIANMU-1 19 的成功发射,进一步完善了我国遥感卫星体系,为相关科学研究和实际应用提供了重要支持。
中国
(CN)
| 数据来源 | 国际轨道数据 |
| 星历时间: | 2025-10-28T22:26:49+0800 17小时前 查看轨道信息 |
| 半长轴: | 6863.93km |
| 偏心率: | 0.0006347 |
| 轨道倾角: | 97.437° |
| 近地点辐角 | 63.997° |
| 升交点赤经 | 52.775° |
| 平近点角 | 296.192° |
| 近地点: | 481.438km |
| 远地点: | 490.152km |
| 周期: | 94.323分钟 |
| 每日圈数: | 15.266644 |